Location: Bluff Heights
(33.7692°N, 118.1592°W)
Time: 19:54:20
(UTC+00:00)

FO-99 - Visible Passes

Search period start: 19 September 2021 00:00
Search period end: 29 September 2021 00:00
Orbit: 471 x 503 km, 97.2° (Epoch: 19 September)

Date Brightness Start Highest point End Pass type
(mag) Time Alt. Az. Time Alt. Az. Time Alt. Az.
19 Sep ? 03:59:42 31° NNW 03:59:42 31° NNW 04:01:43 10° NNW visible
20 Sep ? 03:36:03 32° NNE 03:36:03 32° NNE 03:38:09 10° N visible
21 Sep ? 03:12:24 21° NE 03:12:24 21° NE 03:14:11 10° NNE visible
22 Sep ? 02:48:44 12° NE 02:48:44 12° NE 02:49:29 10° NE visible
22 Sep ? 04:23:10 15° NW 04:23:10 15° NW 04:24:01 10° NW visible
23 Sep ? 03:59:30 22° NNW 03:59:30 22° NNW 04:00:52 10° NNW visible
24 Sep ? 03:35:50 22° N 03:35:50 22° N 03:37:16 10° N visible
25 Sep ? 03:12:10 17° NNE 03:12:10 17° NNE 03:13:17 10° NNE visible
26 Sep ? 02:48:29 10° NE 02:48:29 10° NE 02:48:33 10° NE visible
26 Sep ? 04:22:55 11° NW 04:22:55 11° NW 04:23:08 10° NW visible
27 Sep ? 03:59:15 15° NNW 03:59:15 15° NNW 03:59:56 10° NNW visible
28 Sep ? 03:35:33 16° N 03:35:33 16° N 03:36:20 10° N visible
